Wind_Speed
39 38 38 41 38 34 31 30 28 28 29 29 33 30 34 36 35 37 34 38 32 29 23 21 21 20 19 17 17 19 19 20 22 22 24 23 19 20 28 35 38 38 40 45 33 34 41
42 42 42 42 42 42 39 37 33 29 28 27 31 33 30 31 37 35 32 34 25 25 21 21 21 19 17 17 18 17 16 17 18 19 19 19 20 14 23 32 35 41 39 32 38 34 37
45 45 45 45 45 44 44 44 39 33 30 28 29 33 34 36 31 37 29 28 23 17 20 20 19 16 16 14 16 16 15 15 15 17 18 15 17 18 12 30 29 43 33 29 38 30 33
45 46 47 47 47 47 47 47 45 39 33 30 30 31 35 34 30 35 26 27 19 13 18 18 16 16 14 14 14 16 17 17 17 14 15 14 15 19 11 19 22 42 30 31 40 31 29
47 47 48 49 48 47 48 48 46 41 36 32 29 30 32 37 32 31 24 23 19 11 14 15 14 14 13 9 15 17 18 18 18 16 12 14 23 13 19 15 24 29 23 30 24 34 37
49 49 50 51 52 52 47 45 44 42 39 34 31 32 28 38 35 34 25 16 18 8 11 11 11 12 11 15 15 17 18 14 13 10 9 14 13 12 26 24 11 27 22 26 16 31 16
52 52 52 52 53 53 54 49 42 40 34 31 30 30 35 31 39 33 18 14 14 9 9 8 11 9 11 13 15 10 7 6 6 5 8 6 7 11 17 5 16 26 25 15 7 20 37
54 55 54 52 51 51 52 53 55 42 30 33 30 32 33 33 40 37 14 14 11 8 7 8 9 7 8 13 10 8 3 3 6 4 5 5 4 15 20 3 17 17 28 24 13 12 20
54 52 50 49 47 44 46 49 51 56 44 32 31 40 33 36 40 36 13 14 9 3 6 6 7 6 9 12 6 4 3 3 5 3 2 3 2 8 15 2 7 12 18 22 8 16 14
48 46 46 45 43 44 46 47 51 52 57 39 36 26 35 36 39 25 13 11 6 2 4 3 5 6 10 8 5 4 6 7 5 3 6 5 5 13 15 11 9 8 10 10 22 8 4
42 42 41 37 39 41 42 39 35 40 44 38 39 33 34 35 38 17 11 8 6 5 3 2 3 6 7 5 6 3 2 3 3 6 5 2 12 9 11 7 9 12 13 13 12 12 5
33 33 34 37 36 38 40 39 43 47 40 29 36 39 34 36 37 13 11 10 8 4 3 3 1 4 2 7 8 6 8 9 11 9 5 7 10 8 7 7 23 18 22 15 12 12 2
33 33 33 36 37 39 39 40 43 43 27 21 29 28 38 33 25 10 14 14 7 5 5 6 5 4 10 10 8 10 8 6 4 7 8 10 10 7 5 20 20 18 20 4 3 1 2
30 32 33 36 38 39 36 38 44 49 14 26 20 26 32 35 20 17 16 18 7 7 9 10 9 9 8 7 6 7 9 9 6 11 10 6 4 8 7 13 11 14 5 4 4 2 3
30 32 35 37 38 36 35 40 37 20 21 35 20 26 25 29 16 19 22 13 5 9 12 14 11 8 8 1 1 9 13 11 15 6 3 6 6 10 13 8 11 8 7 7 10 9 5
33 34 35 34 35 34 32 40 24 18 22 22 24 23 26 20 21 24 25 8 7 13 17 15 7 6 6 6 2 2 5 10 8 11 16 19 15 16 14 9 5 10 6 5 4 3 4
33 35 31 32 31 29 31 32 21 5 2 9 21 28 22 22 24 26 22 10 14 16 17 15 7 8 7 4 4 4 6 9 7 8 13 11 8 16 17 7 13 13 4 4 5 5 3
33 33 31 30 29 28 26 23 22 8 22 9 24 22 24 25 29 28 16 12 17 21 18 10 9 11 7 5 3 5 6 7 12 12 8 8 15 13 16 17 16 10 5 4 3 1 6
34 32 30 27 27 27 25 19 12 16 15 12 26 21 27 31 21 25 19 14 18 24 18 11 11 9 10 7 4 10 13 14 11 10 6 9 12 9 5 6 12 9 8 5 10 8 5
32 30 27 27 26 24 22 18 10 25 12 18 22 22 27 30 16 22 21 18 21 20 13 14 12 8 8 4 5 11 16 9 7 10 8 5 12 3 7 6 10 10 12 9 6 4 9
29 28 26 25 25 21 20 13 5 17 16 24 20 16 24 27 21 23 21 21 22 21 16 15 13 11 8 4 5 10 15 13 8 7 6 9 9 8 9 6 5 7 11 12 11 8 6
28 26 24 23 21 16 11 8 3 9 10 15 10 8 17 4 24 26 21 19 24 22 21 18 13 10 5 3 2 11 8 12 8 7 5 5 9 7 6 4 3 3 6 12 11 10 9
26 23 21 20 15 15 4 14 14 10 24 15 9 7 13 11 28 27 21 22 18 19 20 16 11 9 6 6 2 8 9 9 5 8 5 4 10 8 4 3 1 3 7 10 11 11 12
25 21 19 17 12 10 9 16 9 9 21 21 9 9 1 16 28 22 24 21 17 16 17 17 14 9 7 6 7 7 9 8 5 7 5 4 6 6 4 5 1 3 7 10 12 12 13
21 19 18 9 12 8 3 4 11 13 16 18 13 9 1 13 24 17 21 21 17 15 15 14 14 9 10 7 9 6 6 5 6 8 6 5 6 3 3 4 8 8 8 9 9 10 13
17 17 12 8 5 8 10 5 21 18 17 17 15 10 4 21 25 22 18 18 18 17 18 15 13 11 11 11 6 3 3 4 5 5 9 10 9 7 2 0 4 4 4 6 7 10 10
14 15 7 4 8 17 16 4 11 18 24 23 17 12 10 19 26 21 21 20 17 18 16 16 15 13 11 10 4 2 2 5 2 3 4 6 8 9 7 4 5 7 5 6 3 3 4
13 6 4 6 10 12 12 3 12 20 27 25 18 12 20 13 24 21 20 21 18 16 15 16 15 15 14 10 5 2 1 5 4 4 3 6 4 5 7 4 5 5 6 8 7 9 10
8 4 4 10 8 14 9 7 14 17 26 26 19 16 20 9 23 22 21 20 16 15 14 11 9 11 10 10 6 5 3 3 6 3 9 5 8 3 6 4 5 6 7 9 13 15 16
Wind_Direction
299 299 297 297 296 293 290 286 286 286 290 296 302 304 312 313 323 312 333 324 327 327 310 300 300 298 294 291 285 280 281 281 280 276 271 267 272 247 238 226 216 221 223 217 216 227 229
298 296 294 294 295 296 293 290 282 282 283 288 295 300 304 307 311 306 332 322 323 324 311 302 301 297 293 292 282 281 286 284 281 280 272 263 268 256 244 226 221 219 207 218 219 221 225
294 292 290 291 291 290 289 290 288 283 281 280 285 293 298 315 305 301 325 321 318 322 311 304 299 297 292 284 288 289 283 285 281 276 274 270 269 242 232 225 217 219 205 209 208 215 217
291 288 288 289 288 288 288 288 288 287 280 281 281 290 296 307 310 304 325 325 314 320 312 306 300 299 297 297 292 289 288 290 281 273 269 268 263 251 222 197 206 201 198 202 211 212 211
293 291 289 287 285 288 287 286 285 285 277 273 282 290 291 298 302 305 322 322 309 318 314 305 305 304 303 302 300 294 289 285 280 263 253 261 266 243 217 190 168 187 193 205 203 215 209
297 294 292 290 288 284 285 286 285 284 278 276 284 276 287 292 307 300 316 312 305 321 307 308 310 312 310 310 298 298 288 280 281 212 240 260 273 217 223 231 199 179 186 204 230 213 203
297 295 293 293 293 291 288 285 287 283 276 266 273 272 282 286 294 293 303 303 296 293 299 312 307 307 323 327 316 312 324 275 218 210 279 269 243 209 218 251 163 182 169 117 112 188 198
302 299 297 297 296 295 294 292 285 285 285 258 258 269 271 283 286 289 308 295 289 270 303 298 328 336 342 347 341 340 283 206 210 207 293 310 268 211 215 91 113 152 188 209 291 172 192
301 297 294 293 293 293 293 293 293 287 281 283 244 257 261 275 280 286 302 288 276 246 277 300 339 339 344 345 360 10 349 282 189 265 240 111 164 210 204 118 130 139 161 170 152 94 127
298 294 291 290 289 287 290 292 291 284 281 280 230 257 252 264 270 281 280 266 250 152 265 287 327 334 349 343 306 291 227 257 204 176 109 122 133 168 183 194 142 133 174 183 219 4 34
297 294 293 291 292 295 303 296 294 297 273 271 228 249 241 251 265 267 268 238 198 132 16 259 322 2 349 350 308 274 296 17 154 111 88 112 144 158 192 242 212 171 154 175 199 219 175
304 311 314 313 314 318 315 310 308 299 283 269 223 240 235 249 262 247 228 185 164 175 256 183 93 29 1 59 70 103 108 120 124 91 90 116 138 151 160 110 122 144 147 154 156 139 117
322 316 314 315 316 318 311 306 304 301 290 233 215 246 229 251 249 202 194 178 176 173 180 167 128 115 108 87 89 76 80 113 155 127 105 117 123 172 131 122 131 153 144 106 137 97 74
319 315 313 316 317 315 310 310 314 316 287 211 206 238 232 246 229 190 182 173 218 172 166 165 152 153 132 113 111 96 93 90 102 114 114 90 107 128 115 114 145 145 79 166 139 119 111
324 317 314 316 317 316 313 320 318 301 226 183 213 233 237 235 174 187 184 214 157 182 181 157 162 172 167 215 85 97 91 104 129 136 72 107 86 168 155 128 147 160 71 77 98 73 88
325 318 316 317 322 317 317 324 324 265 195 205 202 221 222 197 173 180 185 215 160 173 162 157 161 178 175 161 139 68 79 95 105 101 102 104 100 132 154 169 189 155 124 69 80 102 75
327 322 318 322 323 318 322 325 8 252 110 169 215 194 187 163 177 181 192 189 165 166 165 167 183 146 149 155 141 83 97 120 118 113 127 86 113 133 135 156 139 143 112 36 67 73 140
322 320 322 326 324 314 323 325 328 229 240 244 199 179 179 174 169 184 194 186 169 172 172 179 166 148 144 124 102 94 119 128 126 124 120 98 121 120 121 139 137 139 145 136 29 73 74
321 322 325 326 322 315 331 336 339 190 227 197 178 165 167 178 181 181 173 172 171 174 175 177 163 160 149 133 117 131 133 130 127 138 133 127 135 114 102 144 174 178 192 149 122 110 95
320 325 327 325 319 317 340 331 333 188 240 210 173 149 171 183 180 170 173 170 163 171 184 174 175 171 166 165 124 152 155 148 121 120 115 127 144 136 151 141 169 184 190 191 199 158 159
322 323 324 323 315 322 342 331 356 186 221 201 183 172 175 195 185 170 173 173 168 168 176 173 179 186 186 168 158 149 168 164 154 129 105 128 130 133 127 125 172 187 205 206 213 212 198
323 323 325 320 315 322 345 15 318 115 208 202 205 159 189 224 176 169 168 168 175 174 172 175 178 185 196 172 125 163 176 179 181 181 152 128 141 143 122 147 175 214 218 214 221 227 229
323 322 325 317 313 335 346 153 184 207 199 197 208 171 173 175 167 170 165 163 173 178 172 179 186 185 179 187 137 171 173 180 174 174 168 150 156 158 156 159 158 270 224 222 230 233 233
322 325 322 316 320 332 336 188 247 256 191 203 191 171 74 177 170 172 168 170 166 174 177 175 178 189 184 175 164 169 176 175 168 169 163 139 166 165 164 161 20 234 213 225 235 240 245
323 327 326 324 346 339 29 189 269 223 197 193 178 166 193 181 165 168 162 174 169 169 166 174 171 174 166 154 150 142 154 175 182 202 209 184 180 171 158 217 296 274 239 241 251 256 253
323 324 322 307 27 18 20 306 256 228 187 183 172 175 155 162 162 159 166 168 165 154 164 174 177 173 169 158 150 137 173 180 191 199 216 216 214 219 176 183 242 314 271 238 251 280 267
321 317 299 319 120 34 31 344 139 166 178 170 168 160 156 174 167 161 168 172 177 176 174 173 175 175 187 187 172 148 167 178 204 196 208 195 213 224 224 241 278 275 257 250 233 288 293
317 315 255 149 102 45 39 123 155 154 162 165 168 152 159 165 171 170 175 181 181 187 185 179 180 193 195 194 201 196 228 205 228 224 217 207 206 201 207 224 278 266 242 231 253 264 284
304 266 158 129 111 42 56 148 174 169 175 171 165 154 164 165 180 174 176 184 192 196 194 194 188 198 200 196 213 216 227 230 228 242 224 223 217 228 221 231 261 289 286 275 270 277 285
Height
3118 3115 3111 3108 3104 3101 3100 3097 3094 3092 3090 3088 3085 3081 3077 3073 3071 3066 3061 3055 3049 3045 3044 3041 3038 3036 3034 3032 3032 3029 3028 3028 3026 3026 3025 3025 3025 3023 3020 3024 3031 3032 3037 3045 3051 3058 3063
3110 3107 3103 3101 3098 3094 3091 3088 3085 3084 3082 3081 3079 3075 3073 3068 3066 3060 3055 3051 3043 3040 3040 3038 3035 3032 3031 3030 3027 3025 3024 3024 3022 3021 3020 3020 3020 3019 3017 3019 3024 3025 3035 3041 3048 3053 3058
3105 3100 3095 3092 3089 3086 3083 3079 3078 3076 3075 3073 3071 3069 3066 3063 3059 3055 3049 3045 3040 3036 3036 3034 3032 3028 3027 3027 3024 3023 3021 3020 3019 3018 3016 3016 3015 3015 3013 3013 3018 3029 3034 3038 3043 3049 3055
3096 3091 3087 3084 3080 3076 3074 3071 3068 3068 3066 3065 3064 3063 3062 3058 3054 3050 3043 3040 3036 3032 3032 3031 3028 3026 3024 3023 3021 3020 3018 3017 3015 3014 3014 3013 3012 3010 3011 3012 3011 3021 3030 3035 3041 3045 3049
3087 3082 3077 3074 3071 3067 3063 3061 3060 3059 3058 3058 3058 3056 3056 3053 3048 3044 3039 3036 3034 3028 3029 3028 3026 3023 3022 3020 3019 3016 3014 3013 3011 3011 3011 3011 3010 3008 3010 3011 3010 3018 3023 3029 3038 3040 3046
3077 3072 3067 3063 3058 3056 3054 3052 3049 3050 3048 3049 3050 3049 3049 3047 3043 3039 3035 3031 3030 3025 3027 3026 3024 3024 3021 3019 3014 3011 3009 3009 3008 3008 3009 3009 3007 3006 3007 3011 3010 3013 3023 3031 3035 3035 3037
3067 3061 3056 3051 3047 3043 3041 3040 3039 3038 3039 3041 3042 3040 3040 3041 3038 3033 3030 3028 3029 3025 3024 3023 3022 3020 3018 3015 3010 3008 3006 3006 3007 3008 3007 3007 3007 3004 3006 3006 3008 3014 3022 3024 3028 3035 3045
3056 3050 3045 3041 3037 3034 3030 3027 3025 3029 3030 3030 3031 3033 3033 3032 3033 3026 3023 3023 3023 3023 3021 3021 3019 3018 3016 3013 3010 3008 3007 3008 3008 3008 3007 3007 3005 3007 3007 3007 3011 3015 3022 3025 3031 3035 3032
3046 3041 3036 3032 3029 3027 3024 3020 3016 3012 3017 3021 3023 3023 3025 3023 3025 3021 3019 3020 3020 3017 3020 3019 3018 3017 3015 3013 3010 3009 3009 3008 3008 3007 3008 3007 3007 3008 3012 3013 3017 3020 3024 3028 3035 3033 3037
3036 3031 3026 3023 3021 3017 3014 3010 3006 3003 3000 3010 3012 3012 3016 3017 3019 3013 3016 3017 3018 3014 3018 3019 3018 3016 3014 3012 3011 3009 3008 3008 3008 3009 3008 3009 3009 3011 3014 3017 3020 3021 3026 3029 3036 3039 3042
3026 3022 3018 3014 3010 3005 3002 2996 2992 2990 2987 2992 3000 3002 3006 3009 3010 3009 3016 3014 3015 3014 3021 3019 3017 3015 3013 3013 3011 3009 3008 3008 3010 3010 3012 3013 3012 3014 3017 3018 3020 3025 3028 3035 3040 3042 3045
3019 3014 3009 3004 3000 2996 2990 2986 2981 2978 2975 2977 2987 2994 2997 3001 3002 3004 3010 3010 3012 3016 3015 3016 3016 3015 3015 3013 3012 3010 3010 3010 3010 3012 3012 3013 3014 3017 3018 3016 3023 3029 3032 3038 3041 3043 3046
3012 3008 3003 2998 2993 2989 2983 2977 2971 2967 2961 2966 2975 2983 2990 2993 2997 3002 3005 3009 3011 3008 3013 3015 3015 3016 3015 3015 3014 3013 3011 3012 3012 3014 3015 3017 3018 3019 3018 3020 3025 3030 3035 3038 3042 3042 3044
3005 3001 2997 2992 2987 2980 2975 2968 2960 2952 2954 2959 2967 2975 2981 2987 2990 2997 3001 3007 3004 3004 3008 3012 3014 3016 3017 3016 3016 3015 3014 3013 3014 3013 3014 3017 3022 3023 3024 3028 3030 3033 3036 3038 3041 3043 3046
3000 2995 2991 2986 2980 2974 2968 2960 2952 2943 2943 2949 2961 2967 2975 2982 2986 2994 3001 3002 2997 3001 3006 3010 3013 3016 3017 3017 3016 3015 3015 3014 3017 3016 3016 3019 3023 3025 3028 3030 3033 3035 3037 3038 3037 3041 3046
2996 2990 2985 2981 2975 2969 2961 2954 2943 2941 2944 2950 2956 2966 2975 2978 2984 2991 2997 2996 2996 3000 3004 3009 3012 3015 3016 3018 3018 3016 3017 3018 3018 3019 3019 3023 3026 3030 3032 3035 3036 3038 3041 3041 3039 3047 3053
2990 2985 2981 2976 2971 2965 2958 2950 2942 2944 2946 2951 2960 2965 2970 2977 2983 2990 2993 2993 2995 3000 3005 3009 3011 3013 3016 3018 3019 3017 3019 3021 3020 3021 3021 3022 3026 3035 3036 3037 3039 3041 3039 3039 3040 3045 3049
2986 2981 2977 2972 2968 2962 2957 2951 2952 2951 2953 2956 2959 2965 2970 2975 2982 2987 2991 2991 2996 3000 3005 3009 3012 3015 3018 3019 3019 3018 3020 3020 3022 3024 3025 3026 3029 3034 3039 3041 3041 3042 3044 3045 3044 3048 3048
2981 2977 2973 2968 2965 2960 2954 2952 2949 2945 2952 2957 2959 2963 2970 2975 2981 2985 2989 2990 2995 3000 3005 3010 3013 3016 3019 3020 3021 3020 3021 3023 3025 3026 3027 3029 3033 3035 3040 3043 3044 3044 3046 3047 3047 3048 3050
2977 2972 2967 2964 2962 2958 2954 2951 2949 2951 2955 2958 2961 2966 2972 2977 2979 2985 2988 2991 2995 3002 3007 3010 3013 3016 3018 3020 3021 3022 3024 3026 3026 3027 3028 3030 3031 3033 3036 3037 3041 3044 3046 3046 3048 3051 3053
2973 2968 2964 2960 2957 2955 2952 2949 2949 2953 2957 2961 2963 2965 2968 2974 2979 2985 2989 2992 2995 3001 3007 3011 3014 3016 3018 3020 3022 3024 3026 3028 3030 3030 3031 3032 3033 3034 3035 3037 3039 3040 3043 3046 3048 3049 3051
2969 2965 2961 2957 2954 2953 2953 2951 2953 2955 2960 2965 2966 2967 2970 2971 2979 2985 2990 2993 2997 3001 3007 3011 3014 3017 3019 3021 3023 3024 3026 3028 3030 3032 3032 3032 3034 3036 3037 3037 3038 3040 3042 3044 3046 3047 3050
2965 2961 2958 2955 2952 2950 2950 2950 2952 2957 2962 2965 2968 2969 2971 2973 2977 2985 2991 2994 2999 3004 3009 3013 3016 3019 3020 3022 3023 3025 3027 3028 3029 3032 3033 3034 3035 3037 3039 3039 3041 3043 3040 3041 3043 3046 3048
2961 2959 2956 2954 2952 2949 2949 2951 2954 2958 2962 2966 2970 2974 2973 2975 2980 2986 2992 2997 3000 3006 3010 3014 3018 3020 3023 3024 3025 3026 3027 3029 3030 3032 3034 3035 3036 3038 3039 3040 3045 3040 3039 3041 3042 3043 3045
2958 2955 2952 2951 2951 2950 2949 2950 2955 2957 2962 2968 2972 2975 2975 2977 2984 2988 2994 2999 3003 3007 3011 3015 3019 3022 3024 3025 3026 3028 3029 3031 3031 3034 3035 3037 3038 3038 3040 3041 3040 3039 3039 3041 3041 3043 3043
2956 2954 2952 2951 2952 2952 2951 2953 2953 2957 2963 2970 2974 2977 2978 2982 2988 2992 2997 3001 3005 3009 3013 3017 3020 3023 3025 3027 3028 3029 3031 3032 3034 3034 3034 3036 3038 3040 3040 3042 3040 3039 3039 3040 3040 3041 3041
2953 2951 2950 2951 2951 2951 2953 2955 2955 2958 2965 2972 2977 2978 2980 2985 2989 2994 2998 3003 3007 3011 3014 3017 3021 3023 3027 3028 3029 3030 3031 3032 3033 3033 3034 3035 3036 3039 3040 3040 3039 3038 3039 3039 3042 3045 3040
2949 2949 2951 2951 2953 2955 2957 2958 2960 2962 2968 2974 2978 2981 2984 2987 2991 2996 3000 3004 3008 3012 3016 3019 3023 3024 3026 3029 3031 3031 3032 3033 3033 3033 3034 3036 3037 3038 3039 3040 3039 3037 3038 3040 3040 3038 3038
2949 2950 2951 2952 2954 2956 2960 2961 2964 2968 2971 2977 2981 2983 2986 2991 2994 2998 3002 3007 3011 3014 3018 3020 3022 3024 3026 3029 3031 3031 3032 3032 3033 3033 3034 3036 3036 3036 3038 3037 3036 3036 3037 3037 3036 3037 3036